| time (UTC) | temp F | wind direction | speed MPH | gust MPH | rain 1hr in | rain 24hr in | rain mn in | humidity % | barometer mb |
| 20260504070245 | 51 | 175 | 0.0 | 0.0 | 0.00 | 0.00 | 0.00 | 77 | 982.4 |
| 20260504050651 | 51 | 175 | 0.0 | 0.0 | 0.00 | 0.00 | 0.00 | 74 | 983.2 |
| 20260504050145 | 51 | 175 | 0.0 | 0.0 | 0.00 | 0.00 | 0.00 | 74 | 983.2 |
| 20260504045638 | 51 | 175 | 0.0 | 0.0 | 0.00 | 0.00 | 0.00 | 73 | 983.2 |
| 20260504045134 | 51 | 175 | 0.0 | 0.0 | 0.00 | 0.00 | 0.00 | 73 | 983.2 |
| 20260504045058 | 51 | 175 | 0.0 | 0.0 | 0.00 | 0.00 | 0.00 | 71 | 983.1 |
| 20260504044122 | 52 | 175 | 0.0 | 0.0 | 0.00 | 0.00 | 0.00 | 71 | 983.2 |
| 20260504043615 | 52 | 175 | 0.0 | 0.0 | 0.00 | 0.00 | 0.00 | 70 | 983.3 |
| 20260504043541 | 52 | 175 | 0.0 | 0.0 | 0.00 | 0.00 | 0.00 | 70 | 983.2 |
| 20260504042603 | 52 | 175 | 0.0 | 0.0 | 0.00 | 0.00 | 0.00 | 69 | 983.3 |
| 20260504042058 | 53 | 175 | 0.0 | 0.0 | 0.00 | 0.00 | 0.00 | 69 | 983.2 |
| 20260504041551 | 53 | 175 | 0.0 | 0.0 | 0.00 | 0.00 | 0.00 | 67 | 983.3 |
| 20260504041046 | 54 | 175 | 0.0 | 0.0 | 0.00 | 0.00 | 0.00 | 67 | 983.3 |
| 20260504040541 | 54 | 175 | 0.0 | 0.0 | 0.00 | 0.00 | 0.00 | 66 | 983.3 |
| 20260504040036 | 54 | 175 | 0.0 | 0.0 | 0.00 | 0.00 | 0.00 | 65 | 983.3 |
| 20260504035530 | 54 | 175 | 0.0 | 0.0 | 0.00 | 0.00 | 0.00 | 66 | 983.2 |
| 20260504035448 | 55 | 175 | 0.0 | 0.0 | 0.00 | 0.00 | 0.00 | 65 | 983.3 |
| 20260504034517 | 55 | 178 | 0.0 | 0.0 | 0.00 | 0.00 | 0.00 | 65 | 983.3 |
| 20260504034012 | 55 | 168 | 0.0 | 0.0 | 0.00 | 0.00 | 0.00 | 65 | 983.4 |
| 20260504033508 | 55 | 168 | 0.0 | 0.0 | 0.00 | 0.00 | 0.00 | 65 | 983.4 |
| 20260504032959 | 55 | 168 | 0.0 | 0.0 | 0.00 | 0.00 | 0.00 | 65 | 983.4 |
| 20260504032454 | 55 | 169 | 0.0 | 0.0 | 0.00 | 0.00 | 0.00 | 65 | 983.4 |
| 20260504031948 | 55 | 169 | 0.0 | 0.0 | 0.00 | 0.00 | 0.00 | 64 | 983.4 |
| 20260504031442 | 55 | 169 | 0.0 | 0.0 | 0.00 | 0.00 | 0.00 | 64 | 983.4 |
| 20260504030936 | 55 | 169 | 0.0 | 0.0 | 0.00 | 0.00 | 0.00 | 64 | 983.5 |
| 20260504030906 | 55 | 169 | 0.0 | 0.0 | 0.00 | 0.00 | 0.00 | 65 | 983.6 |
| 20260504025924 | 55 | 161 | 0.0 | 0.0 | 0.00 | 0.00 | 0.00 | 65 | 983.5 |
| 20260504025850 | 55 | 158 | 0.0 | 0.0 | 0.00 | 0.00 | 0.00 | 66 | 983.5 |
| 20260504024912 | 54 | 158 | 0.0 | 0.0 | 0.00 | 0.00 | 0.00 | 67 | 983.5 |
| 20260504024405 | 54 | 217 | 0.0 | 0.0 | 0.00 | 0.00 | 0.00 | 67 | 983.6 |
| 20260504023900 | 55 | 217 | 0.0 | 0.0 | 0.00 | 0.00 | 0.00 | 68 | 983.6 |
| 20260504023354 | 55 | 138 | 0.0 | 0.0 | 0.00 | 0.00 | 0.00 | 67 | 983.6 |
| 20260504022848 | 55 | 213 | 0.0 | 0.0 | 0.00 | 0.00 | 0.00 | 67 | 983.6 |
| 20260504022341 | 55 | 213 | 0.0 | 0.0 | 0.00 | 0.00 | 0.00 | 67 | 983.4 |
| 20260504022245 | 55 | 213 | 0.0 | 0.0 | 0.00 | 0.00 | 0.00 | 64 | 983.5 |
| 20260504022032 | 55 | 213 | 0.0 | 0.0 | 0.00 | 0.00 | 0.00 | 65 | 983.5 |
| 20260504021221 | 55 | 213 | 0.0 | 0.0 | 0.00 | 0.00 | 0.00 | 64 | 983.3 |
| 20260504021210 | 55 | 213 | 0.0 | 0.0 | 0.00 | 0.00 | 0.00 | 65 | 983.4 |
| 20260504021010 | 55 | 213 | 0.0 | 0.0 | 0.00 | 0.00 | 0.00 | 64 | 983.5 |
| 20260504015305 | 56 | 213 | 0.0 | 0.0 | 0.00 | 0.00 | 0.00 | 63 | 983.2 |
| 20260504014800 | 56 | 213 | 0.0 | 0.0 | 0.00 | 0.00 | 0.00 | 64 | 983.1 |
| 20260504014254 | 56 | 213 | 0.0 | 0.0 | 0.00 | 0.00 | 0.00 | 63 | 983.1 |
| 20260504013748 | 56 | 213 | 0.0 | 0.0 | 0.00 | 0.00 | 0.00 | 65 | 983.0 |
| 20260504013241 | 57 | 213 | 0.0 | 0.0 | 0.00 | 0.00 | 0.00 | 64 | 983.1 |
| 20260504012735 | 57 | 213 | 0.0 | 0.0 | 0.00 | 0.00 | 0.00 | 61 | 983.2 |
| 20260504012230 | 58 | 213 | 0.0 | 0.0 | 0.00 | 0.00 | 0.00 | 60 | 983.1 |
| 20260504011725 | 58 | 213 | 0.0 | 0.0 | 0.00 | 0.00 | 0.00 | 60 | 983.0 |
| 20260504011219 | 58 | 213 | 0.0 | 0.0 | 0.00 | 0.00 | 0.00 | 60 | 983.0 |
| 20260504010712 | 59 | 213 | 0.0 | 0.0 | 0.00 | 0.00 | 0.00 | 59 | 983.1 |
| 20260504010638 | 59 | 213 | 0.0 | 0.0 | 0.00 | 0.00 | 0.00 | 58 | 983.0 |
| 20260504005701 | 59 | 213 | 0.0 | 0.0 | 0.00 | 0.00 | 0.00 | 58 | 982.9 |
| 20260504005153 | 60 | 213 | 0.0 | 0.0 | 0.00 | 0.00 | 0.00 | 58 | 982.8 |
| 20260504005121 | 60 | 213 | 0.0 | 0.0 | 0.00 | 0.00 | 0.00 | 58 | 982.7 |
| 20260504004142 | 61 | 213 | 0.0 | 0.0 | 0.00 | 0.00 | 0.00 | 57 | 982.7 |
| 20260504004107 | 61 | 213 | 0.0 | 0.0 | 0.00 | 0.00 | 0.00 | 55 | 982.7 |
| 20260504003131 | 62 | 213 | 0.0 | 0.0 | 0.00 | 0.00 | 0.00 | 55 | 982.8 |
| 20260504002624 | 62 | 213 | 0.0 | 0.0 | 0.00 | 0.00 | 0.00 | 54 | 982.7 |
| 20260504002117 | 63 | 213 | 0.0 | 0.0 | 0.00 | 0.00 | 0.00 | 53 | 982.8 |
| 20260504001612 | 63 | 213 | 0.0 | 0.0 | 0.00 | 0.00 | 0.00 | 53 | 982.8 |
| 20260504001107 | 64 | 213 | 0.0 | 0.0 | 0.00 | 0.00 | 0.00 | 51 | 982.8 |
| 20260504000601 | 64 | 213 | 0.0 | 0.0 | 0.00 | 0.00 | 0.00 | 51 | 982.8 |
| 20260504000054 | 64 | 213 | 0.0 | 0.0 | 0.00 | 0.00 | 0.00 | 51 | 982.8 |
| 20260503235547 | 64 | 213 | 0.0 | 0.0 | 0.00 | 0.00 | 0.00 | 51 | 982.8 |
| 20260503235517 | 65 | 213 | 0.0 | 0.0 | 0.00 | 0.00 | 0.00 | 50 | 982.9 |
| 20260503234923 | 65 | 223 | 0.0 | 0.0 | 0.00 | 0.00 | 0.00 | 50 | 983.1 |
| 20260503234919 | 65 | 213 | 0.0 | 0.0 | 0.00 | 0.00 | 0.00 | 51 | 983.1 |
| 20260503234719 | 65 | 213 | 0.0 | 0.0 | 0.00 | 0.00 | 0.00 | 50 | 983.0 |
| 20260503233018 | 65 | 223 | 0.0 | 0.0 | 0.00 | 0.00 | 0.00 | 48 | 983.1 |
| 20260503232946 | 65 | 223 | 0.0 | 0.0 | 0.00 | 0.00 | 0.00 | 48 | 983.2 |
| 20260503232007 | 66 | 177 | 0.0 | 0.0 | 0.00 | 0.00 | 0.00 | 48 | 983.2 |
| 20260503231936 | 66 | 177 | 0.0 | 0.0 | 0.00 | 0.00 | 0.00 | 47 | 983.3 |
| 20260503231006 | 66 | 200 | 0.0 | 0.0 | 0.00 | 0.00 | 0.00 | 47 | 983.3 |
| 20260503230944 | 66 | 275 | 0.0 | 0.0 | 0.00 | 0.00 | 0.00 | 45 | 983.3 |
| 20260503230010 | 66 | 275 | 0.0 | 0.0 | 0.00 | 0.00 | 0.00 | 45 | 983.4 |
| 20260503225503 | 67 | 325 | 0.0 | 0.0 | 0.00 | 0.00 | 0.00 | 43 | 983.4 |
| 20260503225005 | 67 | 266 | 0.0 | 0.0 | 0.00 | 0.00 | 0.00 | 42 | 983.5 |
| 20260503224930 | 67 | 266 | 0.0 | 0.0 | 0.00 | 0.00 | 0.00 | 43 | 983.5 |
| 20260503223959 | 67 | 266 | 0.0 | 0.0 | 0.00 | 0.00 | 0.00 | 43 | 983.4 |
| 20260503223459 | 67 | 186 | 0.0 | 0.0 | 0.00 | 0.00 | 0.00 | 44 | 983.5 |
| 20260503222957 | 67 | 232 | 0.0 | 0.0 | 0.00 | 0.00 | 0.00 | 45 | 983.5 |
| 20260503222458 | 67 | 209 | 0.0 | 0.0 | 0.00 | 0.00 | 0.00 | 44 | 983.5 |
| 20260503221958 | 67 | 213 | 0.0 | 0.0 | 0.00 | 0.00 | 0.00 | 44 | 983.6 |
| 20260503221455 | 67 | 258 | 0.0 | 0.0 | 0.00 | 0.00 | 0.00 | 43 | 983.6 |
| 20260503220955 | 68 | 258 | 0.0 | 0.0 | 0.00 | 0.00 | 0.00 | 42 | 983.6 |
| 20260503220453 | 68 | 234 | 0.0 | 0.0 | 0.00 | 0.00 | 0.00 | 43 | 983.6 |
| 20260503215955 | 68 | 295 | 0.0 | 0.0 | 0.00 | 0.00 | 0.00 | 43 | 983.6 |
| 20260503215455 | 68 | 253 | 0.0 | 0.0 | 0.00 | 0.00 | 0.00 | 42 | 983.6 |
| 20260503214955 | 68 | 254 | 0.0 | 0.0 | 0.00 | 0.00 | 0.00 | 42 | 983.6 |
| 20260503214925 | 68 | 251 | 0.0 | 0.0 | 0.00 | 0.00 | 0.00 | 42 | 983.7 |
| 20260503213955 | 68 | 273 | 0.0 | 0.0 | 0.00 | 0.00 | 0.00 | 40 | 983.8 |
| 20260503213455 | 68 | 245 | 0.0 | 0.0 | 0.00 | 0.00 | 0.00 | 43 | 983.9 |
| 20260503212954 | 68 | 200 | 0.0 | 0.0 | 0.00 | 0.00 | 0.00 | 41 | 984.0 |
| 20260503212456 | 67 | 264 | 0.0 | 0.0 | 0.00 | 0.00 | 0.00 | 42 | 984.0 |
| 20260503211955 | 67 | 123 | 0.0 | 0.0 | 0.00 | 0.00 | 0.00 | 45 | 984.0 |
| 20260503211455 | 67 | 291 | 0.0 | 0.0 | 0.00 | 0.00 | 0.00 | 43 | 984.0 |
| 20260503210953 | 66 | 205 | 0.0 | 0.0 | 0.00 | 0.00 | 0.00 | 44 | 984.1 |
| 20260503210455 | 66 | 335 | 0.0 | 0.0 | 0.00 | 0.00 | 0.00 | 41 | 984.1 |
| 20260503205956 | 67 | 329 | 0.0 | 0.0 | 0.00 | 0.00 | 0.00 | 41 | 984.1 |
| 20260503205453 | 67 | 224 | 0.0 | 0.0 | 0.00 | 0.00 | 0.00 | 43 | 984.2 |
| 20260503204954 | 67 | 309 | 0.0 | 0.0 | 0.00 | 0.00 | 0.00 | 42 | 984.2 |
| 20260503204454 | 67 | 240 | 0.0 | 0.0 | 0.00 | 0.00 | 0.00 | 42 | 984.4 |
| 20260503203954 | 67 | 227 | 0.0 | 1.0 | 0.00 | 0.00 | 0.00 | 44 | 984.4 |
| 20260503203455 | 67 | 211 | 0.0 | 1.0 | 0.00 | 0.00 | 0.00 | 44 | 984.6 |
| 20260503202948 | 66 | 329 | 0.0 | 0.0 | 0.00 | 0.00 | 0.00 | 43 | 984.7 |
| 20260503202445 | 67 | 313 | 0.0 | 0.0 | 0.00 | 0.00 | 0.00 | 40 | 984.8 |
| 20260503202400 | 68 | 268 | 0.0 | 0.0 | 0.00 | 0.00 | 0.00 | 39 | 985.0 |
| 20260503202148 | 67 | 250 | 0.0 | 0.0 | 0.00 | 0.00 | 0.00 | 42 | 984.8 |
| 20260503201650 | 67 | 261 | 0.0 | 0.0 | 0.00 | 0.00 | 0.00 | 43 | 984.9 |
| 20260503200445 | 67 | 301 | 0.0 | 0.0 | 0.00 | 0.00 | 0.00 | 40 | 985.1 |
| 20260503200422 | 67 | 303 | 0.0 | 0.0 | 0.00 | 0.00 | 0.00 | 42 | 985.1 |
| 20260503195446 | 67 | 254 | 0.0 | 0.0 | 0.00 | 0.00 | 0.00 | 40 | 985.4 |
| 20260503194947 | 67 | 260 | 0.0 | 0.0 | 0.00 | 0.00 | 0.00 | 42 | 985.4 |
| 20260503194445 | 67 | 263 | 0.0 | 0.0 | 0.00 | 0.00 | 0.00 | 39 | 985.5 |
| 20260503193943 | 67 | 268 | 0.0 | 0.0 | 0.00 | 0.00 | 0.00 | 44 | 985.6 |
| 20260503193446 | 68 | 258 | 0.0 | 0.0 | 0.00 | 0.00 | 0.00 | 37 | 985.7 |
| 20260503192940 | 68 | 265 | 0.0 | 0.0 | 0.00 | 0.00 | 0.00 | 40 | 985.7 |
| 20260503192433 | 68 | 258 | 0.0 | 0.0 | 0.00 | 0.00 | 0.00 | 39 | 985.8 |
| 20260503191928 | 68 | 176 | 0.0 | 0.0 | 0.00 | 0.00 | 0.00 | 42 | 985.9 |
| 20260503191422 | 68 | 183 | 0.0 | 0.0 | 0.00 | 0.00 | 0.00 | 41 | 986.0 |
| 20260503191346 | 67 | 250 | 0.0 | 0.0 | 0.00 | 0.00 | 0.00 | 42 | 986.1 |
| 20260503190834 | 66 | 234 | 0.0 | 0.0 | 0.00 | 0.00 | 0.00 | 43 | 986.1 |
| 20260503185904 | 65 | 144 | 0.0 | 0.0 | 0.00 | 0.00 | 0.00 | 46 | 986.1 |
| 20260503185830 | 65 | 251 | 0.0 | 0.0 | 0.00 | 0.00 | 0.00 | 46 | 986.2 |
| 20260503184851 | 65 | 321 | 0.0 | 0.0 | 0.00 | 0.00 | 0.00 | 42 | 986.2 |
| 20260503184822 | 66 | 323 | 0.0 | 0.0 | 0.00 | 0.00 | 0.00 | 45 | 986.3 |
| 20260503183834 | 66 | 258 | 0.0 | 0.0 | 0.00 | 0.00 | 0.00 | 46 | 986.3 |
| 20260503183328 | 66 | 306 | 0.0 | 0.0 | 0.00 | 0.00 | 0.00 | 43 | 986.5 |
| 20260503182823 | 66 | 263 | 0.0 | 0.0 | 0.00 | 0.00 | 0.00 | 44 | 986.6 |
| 20260503182315 | 66 | 218 | 0.0 | 0.0 | 0.00 | 0.00 | 0.00 | 45 | 986.6 |
| 20260503181810 | 66 | 231 | 0.0 | 0.0 | 0.00 | 0.00 | 0.00 | 43 | 986.6 |
| 20260503181738 | 65 | 210 | 0.0 | 0.0 | 0.00 | 0.00 | 0.00 | 45 | 986.6 |
| 20260503181230 | 64 | 123 | 0.0 | 0.0 | 0.00 | 0.00 | 0.00 | 44 | 986.6 |
| 20260503180253 | 64 | 325 | 0.0 | 0.0 | 0.00 | 0.00 | 0.00 | 45 | 986.6 |
| 20260503180221 | 63 | 242 | 0.0 | 0.0 | 0.00 | 0.00 | 0.00 | 49 | 986.7 |
| 20260503175242 | 64 | 11 | 0.0 | 0.0 | 0.00 | 0.00 | 0.00 | 46 | 986.8 |
| 20260503174735 | 64 | 127 | 0.0 | 0.0 | 0.00 | 0.00 | 0.00 | 45 | 986.9 |
| 20260503174227 | 63 | 198 | 0.0 | 0.0 | 0.00 | 0.00 | 0.00 | 48 | 987.0 |
| 20260503174157 | 63 | 135 | 0.0 | 0.0 | 0.00 | 0.00 | 0.00 | 45 | 987.0 |
| 20260503173651 | 63 | 169 | 0.0 | 0.0 | 0.00 | 0.00 | 0.00 | 46 | 987.1 |
| 20260503172709 | 64 | 348 | 0.0 | 0.0 | 0.00 | 0.00 | 0.00 | 44 | 987.2 |
| 20260503172204 | 64 | 235 | 0.0 | 0.0 | 0.00 | 0.00 | 0.00 | 48 | 987.3 |
| 20260503171658 | 64 | 154 | 0.0 | 0.0 | 0.00 | 0.00 | 0.00 | 46 | 987.4 |
| 20260503171151 | 64 | 200 | 0.0 | 0.0 | 0.00 | 0.00 | 0.00 | 46 | 987.4 |
| 20260503170646 | 64 | 154 | 0.0 | 0.0 | 0.00 | 0.00 | 0.00 | 50 | 987.4 |
| 20260503170141 | 63 | 211 | 0.0 | 0.0 | 0.00 | 0.00 | 0.00 | 52 | 987.5 |
| 20260503150422 | 57 | 70 | 0.0 | 0.0 | 0.00 | 0.00 | 0.00 | 57 | 988.1 |
| 20260503140310 | 54 | 51 | 0.0 | 0.0 | 0.00 | 0.00 | 0.00 | 72 | 987.9 |
| 20260503131235 | 50 | 9 | 0.0 | 0.0 | 0.00 | 0.00 | 0.00 | 86 | 987.8 |
| 20260503130739 | 50 | 5 | 0.0 | 0.0 | 0.00 | 0.00 | 0.00 | 87 | 987.8 |
| 20260503130233 | 50 | 30 | 0.0 | 0.0 | 0.00 | 0.00 | 0.00 | 88 | 987.8 |
| 20260503110722 | 40 | 348 | 0.0 | 0.0 | 0.00 | 0.00 | 0.00 | 95 | 986.8 |
| 20260503110222 | 40 | 348 | 0.0 | 0.0 | 0.00 | 0.00 | 0.00 | 95 | 986.8 |
| 20260503100205 | 41 | 348 | 0.0 | 0.0 | 0.00 | 0.00 | 0.00 | 94 | 986.4 |
| 20260503090121 | 42 | 348 | 0.0 | 0.0 | 0.00 | 0.00 | 0.00 | 93 | 986.4 |
| 20260503081531 | 43 | 348 | 0.0 | 0.0 | 0.00 | 0.00 | 0.00 | 92 | 986.2 |
| 20260503081024 | 44 | 348 | 0.0 | 0.0 | 0.00 | 0.00 | 0.00 | 92 | 986.1 |
| 20260503080519 | 44 | 348 | 0.0 | 0.0 | 0.00 | 0.00 | 0.00 | 92 | 986.0 |
| 20260503072906 | 45 | 5 | 0.0 | 0.0 | 0.00 | 0.00 | 0.00 | 92 | 985.7 |